Location: Apollinopolis Magna
(24.9792°N, 32.8772°E)
Time: 19:08:18
(UTC+00:00)

Okean-O - Pass Details

Date: 02 March 2021
Orbit: 638 x 641 km, 98.2° (Epoch: 09 April)

Event Time Altitude Azimuth Distance (km) Brightness Sun altitude
Rises 16:15:12 0° 147° (SSE) 2,930 5.7 -6.2°
Reaches altitude 10° 16:17:33 10° 138° (SE) 2,024 4.8 -6.8°
Maximum altitude 16:21:31 33° 74° (ENE) 1,066 3.3 -7.7°
Drops below altitude 10° 16:25:29 10° 10° (N) 2,032 5.1 -8.6°
Sets 16:27:51 0° 1° (N) 2,943 6.0 -9.1°
